Погода в Ташкенте

Узбекистан     41°18′40″N   69°16′47″E
темп.,
°C
ветер,
м/с
пор.,
м/с
влажн.,
%
обл.,
%
осадки,
мм/ч
давл.,
гПа
погр.,
м
3 марта, ср
ср323:00+9с345298 0.0 1024162
02:00+8всв1258100 0.0 102477
05:00+8ю247299 0.0 1025139
08:00+7ю257943 0.0 1024252
11:00+11ююз345747 0.0 1023854
14:00+13ююз34482 0.0 10211265
17:00+14юз23441 0.0 10211410
20:00+11з125377 0.0 102260
4 марта, чт
чт423:00+10ююз005877 0.0 102222
02:00+8вюв126132 0.0 102123
05:00+8всв115616 0.0 102023
08:00+8юв01530 0.0 102023
11:00+14юв244050 0.0 1018323
14:00+16юз6740100 0.0 10161751
17:00+12юв4860100 1.0 1017657
20:00+11юв4962100 0.1 1019292
5 марта, пт
пт523:00+8ссз4885100 2.7 1023485
02:00+6ссз4678100 0.6 1026758
05:00+5сз2377100 1.8 1030495
08:00+4с357650 0.0 1032295
11:00+8ссз225525 0.0 1030750
14:00+11с23330 0.0 10271114
17:00+11с22290 0.0 10251051
20:00+9с34470 0.0 1025150
6 марта, сб
сб623:00+8св35483 0.0 1022114
02:00+7ссв233267 0.0 101989
05:00+6св223483 0.0 101655
08:00+7с2235100 0.0 101374
11:00+11з1127100 0.0 1011267
14:00+14сз2327100 0.0 1012770
17:00+12зсз3438100 0.0 1012429
20:00+10з1249100 0.0 1014100
7 марта, вс
вс723:00+9з2460100 0.1 1015182
02:00+7ю1279100 1.8 1016257
05:00+6ююз1287100 4.1 1017209
08:00+7юв4485100 1.7 1019477
11:00+7ююв2383100 3.2 1019416
14:00+8юв2276100 0.2 1018452
17:00+9юв1162100 0.2 1018551
20:00+8с116799 0.0 101823